Berwick, IA

8:48 AM CST on February 06, 2016 (GMT -0600)
Ankeny Regional

Weather History for KIKV - February, 2014

Change the Weather History Date:

Sunday, February 9, 2014

  Actual Average (KDSM) Record (KDSM)
Temperature  
Mean Temperature 6 °F 25 °F  
Max Temperature 15 °F 34 °F 61 °F (1976)
Min Temperature -2 °F 17 °F -23 °F (1899)
Degree Days  
Heating Degree Days 58 40  
Month to date heating degree days 365  
Since 1 July heating degree days 4145  
Cooling Degree Days 0 0  
Month to date cooling degree days 0  
Year to date cooling degree days 0  
Moisture  
Dew Point -3 °F    
Average Humidity 69    
Maximum Humidity 85    
Minimum Humidity 56    
Precipitation  
Precipitation 0.00 in 0.05 in 0.70 in (2001)
Month to date precipitation 0.37  
Year to date precipitation 1.37  
Snow  
Snow 0.00 in 0.30 in 6.30 in (1960)
Month to date snowfall 2.9  
Since 1 July snowfall 23.3  
Snow Depth -    
Sea Level Pressure  
Sea Level Pressure 30.32 in    
Wind  
Wind Speed 9 mph (NW)    
Max Wind Speed 15 mph    
Max Gust Speed 20 mph    
Visibility 10 miles    
Events Snow    
T = Trace of Precipitation, MM = Missing Value Source: NWS Daily Summary

Daily Weather History Graph

Daily Weather History Graph

Search for Another Location

Airport or City:

Trip Planner

Search our weather history database for the weather conditions in past years. The results will help you decide how hot, cold, wet, or windy it might be!

Date:

Astronomy

Feb. 09, 2014 Rise Set
Actual Time 7:17 AM CST 5:40 PM CST
Civil Twilight 6:48 AM CST 6:09 PM CST
Nautical Twilight 6:15 AM CST 6:41 PM CST
Astronomical Twilight 5:43 AM CST 7:14 PM CST
Moon 1:19 PM CST (2/9) 3:24 AM CST (2/9)
Length of Visible Light 11h 20m
Length of Day
10h 22m
Waxing Gibbous, 77% of the Moon is Illuminated
Feb 9
Waxing Gibbous
Feb 14
Full
Feb 22
Last Quarter
Mar 1
New
Mar 8
First Quarter

Hourly Weather History & Observations

Time (CST) Temp. Windchill Dew Point Humidity Pressure Visibility Wind Dir Wind Speed Gust Speed Precip Events Conditions
12:15 AM 14.0 °F 2.9 °F 8.6 °F 79% 30.18 in 10.0 mi North 8.1 mph - N/A   Overcast
12:35 AM 15.8 °F 7.2 °F 10.4 °F 79% 30.19 in 10.0 mi NNW 5.8 mph - N/A   Overcast
12:55 AM 14.0 °F 3.9 °F 8.6 °F 79% 30.20 in 10.0 mi NW 6.9 mph - N/A   Overcast
1:15 AM 14.0 °F 3.9 °F 8.6 °F 79% 30.20 in 10.0 mi NW 6.9 mph - N/A   Mostly Cloudy
1:35 AM 14.0 °F 2.0 °F 8.6 °F 79% 30.21 in 10.0 mi NW 9.2 mph - N/A   Mostly Cloudy
1:55 AM 14.0 °F 2.9 °F 8.6 °F 79% 30.21 in 10.0 mi NW 8.1 mph - N/A   Overcast
2:15 AM 12.2 °F -0.2 °F 6.8 °F 79% 30.22 in 10.0 mi NW 9.2 mph - N/A   Mostly Cloudy
2:35 AM 12.2 °F -0.2 °F 6.8 °F 79% 30.23 in 10.0 mi NW 9.2 mph - N/A   Mostly Cloudy
2:55 AM 10.4 °F -0.4 °F 5.0 °F 79% 30.22 in 10.0 mi NW 6.9 mph - N/A   Scattered Clouds
3:15 AM 10.4 °F 0.8 °F 5.0 °F 79% 30.23 in 10.0 mi NW 5.8 mph - N/A   Partly Cloudy
3:35 AM 6.8 °F -3.5 °F 3.2 °F 85% 30.23 in 10.0 mi NW 5.8 mph - N/A   Clear
3:55 AM 5.0 °F -8.1 °F 1.4 °F 85% 30.23 in 8.0 mi NW 8.1 mph - N/A   Clear
4:15 AM 5.0 °F -6.9 °F 1.4 °F 85% 30.23 in 7.0 mi WNW 6.9 mph - N/A   Clear
4:35 AM 6.8 °F -7.8 °F 3.2 °F 85% 30.23 in 10.0 mi NW 10.4 mph - N/A   Clear
4:55 AM 6.8 °F -5.9 °F 3.2 °F 85% 30.23 in 10.0 mi NW 8.1 mph - N/A   Partly Cloudy
5:15 AM 8.6 °F -5.5 °F 3.2 °F 79% 30.23 in 10.0 mi NNW 10.4 mph - N/A   Clear
5:35 AM 6.8 °F -8.6 °F 3.2 °F 85% 30.24 in 10.0 mi NNW 11.5 mph - N/A   Scattered Clouds
5:55 AM 6.8 °F -7.8 °F 1.4 °F 79% 30.24 in 10.0 mi NNW 10.4 mph - N/A   Partly Cloudy
6:15 AM 5.0 °F -11.6 °F -0.4 °F 78% 30.25 in 10.0 mi NNW 12.7 mph - N/A   Clear
6:35 AM 5.0 °F -10.8 °F -2.2 °F 72% 30.25 in 10.0 mi NNW 11.5 mph - N/A   Clear
6:55 AM 3.2 °F -12.2 °F -2.2 °F 78% 30.26 in 10.0 mi NNW 10.4 mph - N/A   Partly Cloudy
7:15 AM 3.2 °F -9.1 °F -4.0 °F 72% 30.27 in 10.0 mi NNW 6.9 mph - N/A   Mostly Cloudy
7:35 AM 3.2 °F -12.2 °F -2.2 °F 78% 30.28 in 10.0 mi NNW 10.4 mph - N/A   Overcast
7:55 AM 3.2 °F -10.3 °F -4.0 °F 72% 30.29 in 9.0 mi NNW 8.1 mph - N/A Snow Light Snow
8:15 AM 3.2 °F -12.2 °F -4.0 °F 72% 30.31 in 10.0 mi NW 10.4 mph - N/A   Overcast
8:35 AM 1.4 °F -14.5 °F -5.8 °F 72% 30.31 in 10.0 mi NNW 10.4 mph 18.4 mph N/A   Scattered Clouds
8:55 AM 1.4 °F -15.3 °F -7.6 °F 66% 30.31 in 10.0 mi NNW 11.5 mph - N/A   Clear
9:15 AM 1.4 °F -16.9 °F -7.6 °F 66% 30.30 in 10.0 mi NNW 13.8 mph - N/A   Clear
9:35 AM 1.4 °F -16.9 °F -7.6 °F 66% 30.30 in 10.0 mi NNW 13.8 mph - N/A   Clear
9:55 AM 1.4 °F -16.1 °F -7.6 °F 66% 30.30 in 10.0 mi NNW 12.7 mph 19.6 mph N/A   Clear
10:15 AM 1.4 °F -16.1 °F -7.6 °F 66% 30.32 in 10.0 mi NNW 12.7 mph - N/A   Clear
10:35 AM 1.4 °F -17.6 °F -7.6 °F 66% 30.32 in 10.0 mi NNW 15.0 mph - N/A   Clear
10:55 AM 1.4 °F -15.3 °F -7.6 °F 66% 30.34 in 10.0 mi NNW 11.5 mph 19.6 mph N/A   Clear
11:15 AM 3.2 °F -13.9 °F -5.8 °F 66% 30.35 in 10.0 mi NNW 12.7 mph - N/A   Clear
11:35 AM 3.2 °F -11.3 °F -5.8 °F 66% 30.34 in 10.0 mi NW 9.2 mph 17.3 mph N/A   Clear
11:55 AM 5.0 °F -9.1 °F -4.0 °F 66% 30.33 in 10.0 mi NW 9.2 mph - N/A   Clear
12:15 PM 5.0 °F -10.8 °F -4.0 °F 66% 30.33 in 10.0 mi NW 11.5 mph - N/A   Clear
12:35 PM 5.0 °F -9.1 °F -4.0 °F 66% 30.32 in 10.0 mi NW 9.2 mph - N/A   Clear
12:55 PM 6.8 °F -6.9 °F -4.0 °F 61% 30.33 in 10.0 mi NW 9.2 mph 15.0 mph N/A   Clear
1:15 PM 6.8 °F -7.8 °F -2.2 °F 67% 30.35 in 10.0 mi NW 10.4 mph 16.1 mph N/A   Clear
1:35 PM 6.8 °F -8.6 °F -2.2 °F 67% 30.35 in 10.0 mi NW 11.5 mph 17.3 mph N/A   Clear
1:55 PM 8.6 °F -5.5 °F -2.2 °F 62% 30.35 in 10.0 mi NW 10.4 mph - N/A   Clear
2:15 PM 8.6 °F -6.3 °F -2.2 °F 62% 30.34 in 10.0 mi NW 11.5 mph - N/A   Clear
2:35 PM 6.8 °F -8.6 °F -4.0 °F 61% 30.34 in 10.0 mi NW 11.5 mph - N/A   Clear
2:55 PM 6.8 °F -7.8 °F -4.0 °F 61% 30.35 in 10.0 mi NNW 10.4 mph 18.4 mph N/A   Clear
3:15 PM 8.6 °F -6.3 °F -2.2 °F 62% 30.34 in 10.0 mi NNW 11.5 mph - N/A   Clear
3:35 PM 8.6 °F -6.3 °F -2.2 °F 62% 30.35 in 10.0 mi NW 11.5 mph - N/A   Clear
3:55 PM 8.6 °F -7.0 °F -4.0 °F 57% 30.35 in 10.0 mi NW 12.7 mph - N/A   Clear
4:15 PM 8.6 °F -7.0 °F -4.0 °F 57% 30.34 in 10.0 mi NW 12.7 mph 18.4 mph N/A   Clear
4:35 PM 6.8 °F -8.6 °F -4.0 °F 61% 30.36 in 10.0 mi NW 11.5 mph - N/A   Clear
4:55 PM 6.8 °F -8.6 °F -5.8 °F 56% 30.35 in 10.0 mi NNW 11.5 mph 17.3 mph N/A   Clear
5:15 PM 6.8 °F -8.6 °F -5.8 °F 56% 30.37 in 10.0 mi NNW 11.5 mph 17.3 mph N/A   Clear
5:35 PM 5.0 °F -9.1 °F -5.8 °F 61% 30.38 in 10.0 mi NNW 9.2 mph 17.3 mph N/A   Clear
5:55 PM 5.0 °F -9.1 °F -5.8 °F 61% 30.39 in 10.0 mi NNW 9.2 mph 15.0 mph N/A   Clear
6:15 PM 5.0 °F -9.1 °F -5.8 °F 61% 30.40 in 10.0 mi NNW 9.2 mph - N/A   Clear
6:35 PM 3.2 °F -9.1 °F -7.6 °F 61% 30.41 in 10.0 mi WNW 6.9 mph - N/A   Clear
6:55 PM 3.2 °F -9.1 °F -5.8 °F 66% 30.41 in 10.0 mi NNW 6.9 mph - N/A   Clear
7:15 PM 3.2 °F -7.8 °F -7.6 °F 61% 30.40 in 10.0 mi NNW 5.8 mph 12.7 mph N/A   Clear
7:35 PM 1.4 °F -8.3 °F -7.6 °F 66% 30.41 in 10.0 mi NW 4.6 mph - N/A   Clear
7:55 PM 1.4 °F -8.3 °F -7.6 °F 66% 30.40 in 10.0 mi NW 4.6 mph - N/A   Clear
8:15 PM 1.4 °F -8.3 °F -7.6 °F 66% 30.41 in 10.0 mi NW 4.6 mph - N/A   Clear
8:35 PM -0.4 °F -13.4 °F -9.4 °F 66% 30.41 in 10.0 mi WNW 6.9 mph - N/A   Clear
8:55 PM -0.4 °F -12.0 °F -9.4 °F 66% 30.42 in 10.0 mi WNW 5.8 mph - N/A   Clear
9:15 PM -0.4 °F -12.0 °F -9.4 °F 66% 30.42 in 10.0 mi WNW 5.8 mph - N/A   Clear
9:35 PM -0.4 °F -12.0 °F -9.4 °F 66% 30.43 in 10.0 mi West 5.8 mph - N/A   Clear
9:55 PM -0.4 °F -13.4 °F -9.4 °F 66% 30.43 in 10.0 mi WNW 6.9 mph - N/A   Clear
10:15 PM -2.2 °F -15.6 °F -9.4 °F 71% 30.43 in 10.0 mi NW 6.9 mph - N/A   Clear
10:35 PM -0.4 °F -15.7 °F -9.4 °F 66% 30.43 in 10.0 mi NW 9.2 mph - N/A   Clear
10:55 PM 1.4 °F -15.3 °F -7.6 °F 66% 30.43 in 10.0 mi NW 11.5 mph - N/A   Clear
11:15 PM -0.4 °F -14.7 °F -7.6 °F 72% 30.43 in 10.0 mi NW 8.1 mph - N/A   Clear
11:35 PM -0.4 °F -15.7 °F -9.4 °F 66% 30.43 in 10.0 mi NW 9.2 mph - N/A   Clear
11:55 PM -0.4 °F -16.7 °F -9.4 °F 66% 30.42 in 10.0 mi NW 10.4 mph - N/A   Clear